Theta_e
310 311 311 310 309 310 309 310 306 308 308 312 315 318 325 329 331 334 334 334 341 342 345 352 356 361 361 357 360 361 365 362 362 363 360 357 351 349 346 340 337 336 335 335
308 310 310 308 310 310 311 311 311 311 309 316 317 321 324 328 332 334 336 334 339 345 346 350 352 357 358 362 362 368 367 363 361 356 355 350 348 344 340 336 333 334 333 332
304 309 309 305 309 310 311 313 313 309 313 319 321 323 326 331 335 337 338 337 338 342 347 351 352 356 356 363 363 365 363 359 355 352 348 346 345 340 336 333 332 332 332 332
304 307 298 309 315 314 313 315 317 317 318 320 324 327 330 337 339 342 343 343 340 342 345 349 353 355 359 359 364 362 357 353 349 347 346 345 340 337 334 331 330 330 330 331
303 303 307 309 312 312 312 312 318 318 320 324 328 329 332 341 346 346 347 346 344 344 347 350 352 356 361 358 358 356 353 348 347 349 345 341 338 336 333 329 327 328 329 330
307 302 299 310 316 321 320 309 320 326 325 326 328 320 328 335 346 349 350 348 345 344 348 352 354 357 359 358 356 351 349 345 350 350 344 338 337 336 330 327 326 324 326 329
306 304 307 315 318 320 307 312 327 327 327 327 325 328 332 334 345 348 351 352 352 350 349 354 356 357 356 354 353 349 345 350 350 347 342 340 337 333 327 323 324 329 326 326
308 305 302 321 320 313 320 326 327 327 329 328 329 331 332 333 343 347 346 350 353 352 355 357 358 354 352 351 347 343 350 349 347 343 340 337 331 327 327 328 328 330 328 322
309 309 320 324 322 324 326 326 326 327 325 327 326 328 331 333 338 347 346 344 345 347 350 352 351 352 347 342 340 343 349 346 343 342 338 333 328 325 322 327 322 322 320 319
311 315 317 317 320 322 325 325 328 327 325 326 326 324 325 331 336 347 346 344 342 341 341 342 346 342 339 339 343 345 343 342 339 336 334 330 327 326 323 322 321 320 319 319
309 313 316 317 318 319 322 324 323 321 320 319 321 323 321 327 333 343 346 345 343 340 340 340 340 340 340 341 343 344 339 337 336 335 333 330 330 327 324 328 320 320 320 320
304 312 312 313 315 315 313 318 321 318 317 319 319 320 323 325 330 338 346 346 342 342 340 338 337 338 338 343 344 340 335 337 335 332 333 332 329 325 312 313 313 309 308 314
309 313 312 313 314 313 312 313 314 315 316 315 317 319 323 325 333 332 340 349 347 344 343 340 336 337 338 339 340 339 340 337 335 331 333 332 329 325 319 317 309 307 307 306
311 310 308 310 309 312 313 313 313 315 315 315 315 319 323 325 331 331 334 340 349 349 347 341 337 336 336 336 338 338 340 323 338 335 334 333 330 326 322 318 318 319 308 310
310 310 310 311 311 310 311 311 312 313 314 315 317 321 323 324 327 329 334 337 340 343 350 346 340 339 338 337 337 340 340 336 336 334 336 331 329 325 322 320 319 317 319 311
311 312 312 311 311 312 312 311 311 312 313 315 316 321 324 326 328 330 333 336 339 340 344 349 347 342 341 341 342 342 342 332 331 336 334 328 326 323 321 320 319 318 319 320
311 310 312 313 313 312 312 313 313 313 314 315 318 323 324 326 327 330 334 339 347 348 348 350 350 353 347 345 344 343 339 335 331 332 331 328 325 322 320 319 320 320 321 322
314 315 315 315 315 315 315 316 318 314 315 319 324 326 327 327 329 335 339 347 347 347 348 351 353 353 348 346 342 339 336 337 333 332 329 324 322 321 321 320 321 321 321 319
312 310 311 312 315 315 318 317 319 320 327 326 325 326 328 329 333 336 343 344 342 341 343 346 333 339 340 337 335 337 335 333 326 322 319 315 318 320 321 321 321 320 322 322
310 311 311 310 311 313 317 319 320 320 326 326 327 327 327 330 334 341 340 336 337 336 340 339 340 341 337 334 331 332 330 326 321 318 315 314 319 320 320 314 321 322 322 323
309 309 308 310 308 310 315 320 320 320 323 327 327 327 328 334 337 339 332 331 336 333 332 331 337 335 334 328 327 325 323 323 317 315 316 320 319 320 322 322 321 322 322 322
309 309 309 308 307 309 313 318 322 324 325 326 327 329 332 334 333 331 334 330 328 317 324 329 329 328 325 324 322 320 320 319 318 318 320 320 321 321 321 321 320 321 321 322
306 306 306 305 305 309 313 317 322 324 324 326 328 329 330 333 332 327 325 325 326 320 323 323 320 320 320 322 321 319 320 319 320 320 321 322 322 321 321 321 323 325 322 325
304 305 305 306 310 310 312 317 322 324 327 329 329 331 331 329 330 331 328 318 314 320 320 320 318 318 320 322 322 323 323 321 323 323 322 313 325 325 325 325 323 323 322 319
305 305 306 309 312 312 314 318 322 324 328 327 328 329 330 330 330 330 328 325 314 321 321 315 317 317 324 324 323 323 324 325 324 322 323 324 324 325 324 324 327 325 324 324
306 307 311 315 315 316 318 321 323 326 325 324 324 326 326 326 326 329 328 322 327 319 321 322 323 325 325 324 325 324 323 323 323 324 324 325 325 326 324 326 325 325 325 324
313 308 315 316 318 320 320 323 325 323 323 325 323 325 325 325 323 324 320 327 327 327 326 326 326 324 326 326 324 324 324 324 317 325 324 325 325 324 324 325 325 325 325 323
Wind_Speed
18 21 22 19 19 17 17 17 18 19 21 17 15 8 11 7 8 9 9 11 14 15 18 19 19 17 18 19 18 19 16 17 15 13 12 12 12 11 10 10 9 9 10 10
17 18 20 24 25 22 21 21 18 17 16 19 13 4 6 8 9 11 12 11 13 16 18 20 20 17 17 16 17 15 15 15 14 13 12 13 11 12 11 10 10 9 9 10
16 17 15 17 21 22 22 23 24 15 13 3 7 11 9 8 6 8 9 11 12 16 17 18 18 17 17 15 17 16 15 14 15 15 14 13 13 13 12 11 10 10 10 10
14 14 18 17 16 16 17 16 18 15 9 11 8 10 12 8 8 11 10 9 11 12 16 17 17 19 17 18 16 16 15 17 17 16 15 15 16 14 13 11 11 10 10 10
13 15 17 17 15 11 13 16 15 20 5 8 11 15 3 9 11 11 13 9 9 11 11 13 16 19 17 16 17 17 17 17 17 18 18 17 15 13 12 12 11 10 10 10
12 15 17 13 8 8 9 13 9 16 10 10 13 11 11 13 12 13 13 10 8 7 10 12 13 18 17 18 18 17 18 17 17 17 16 15 15 15 12 10 11 10 10 10
12 13 15 10 7 4 11 4 9 9 8 9 9 7 9 12 12 13 15 13 12 7 8 11 12 16 18 15 16 14 17 18 16 17 17 15 13 10 10 11 13 10 11 10
12 16 19 8 7 9 8 6 7 7 10 9 9 10 12 12 11 10 12 14 13 5 5 6 8 12 13 11 12 16 17 16 17 17 14 12 12 11 11 11 10 9 10 10
17 13 2 4 4 6 9 9 8 5 10 8 15 11 10 12 11 9 9 7 8 9 1 3 6 6 11 10 16 16 16 16 16 15 12 13 13 12 10 7 10 11 11 10
17 16 19 16 12 12 9 12 8 9 11 10 10 12 20 10 13 9 7 6 4 3 3 5 3 6 12 15 15 15 14 14 11 13 11 13 12 10 9 9 9 9 10 10
17 16 16 19 17 15 16 4 5 10 12 13 13 12 13 13 11 6 4 5 2 3 5 5 6 9 14 14 13 14 13 10 13 11 14 13 11 10 10 10 9 11 10 10
16 15 17 16 17 19 20 17 10 13 16 13 12 13 13 12 10 12 4 3 4 5 6 5 6 7 12 10 12 12 11 11 11 12 11 12 11 10 9 5 10 11 10 4
18 18 20 20 19 20 21 20 21 17 19 14 15 15 11 11 8 7 10 8 9 9 7 7 7 6 6 9 10 12 10 13 11 11 11 12 12 11 11 4 6 9 7 3
23 22 24 24 18 20 20 20 18 19 14 16 15 15 12 12 8 8 11 10 8 11 9 10 10 9 11 11 9 10 12 10 10 10 12 12 12 10 10 11 10 10 5 7
15 16 18 17 19 20 19 20 25 17 14 13 14 14 12 13 13 11 9 11 11 11 11 14 12 11 13 13 13 12 11 12 11 11 11 11 10 9 10 11 11 10 11 8
13 15 16 17 17 17 17 20 23 23 17 15 17 15 12 12 12 12 11 12 11 11 13 11 15 14 15 16 15 12 14 15 12 9 9 10 11 10 10 10 10 10 11 12
13 13 14 14 15 17 16 16 17 21 20 16 17 12 12 12 13 13 14 14 10 12 12 11 11 11 18 15 17 10 9 8 10 9 11 10 9 9 8 8 8 9 9 10
9 8 12 17 17 17 16 15 17 17 16 15 11 8 10 13 12 12 13 10 8 9 9 9 5 10 15 14 10 9 8 9 9 6 10 5 3 5 7 9 8 9 9 9
3 7 10 9 16 17 17 15 15 18 7 3 5 10 12 13 13 12 12 8 8 7 6 2 9 11 12 12 11 8 8 11 9 7 7 9 7 4 8 8 8 10 11 10
6 12 8 13 17 17 22 16 2 23 7 6 8 11 13 13 11 10 3 6 3 3 3 4 11 11 13 13 9 5 9 10 9 8 8 8 7 13 6 13 12 7 10 8
2 8 11 15 17 19 22 18 15 16 12 9 11 12 14 12 7 2 4 5 2 4 7 6 11 8 9 13 12 10 10 11 10 8 7 9 9 10 13 11 10 10 8 7
10 12 17 16 17 20 19 21 15 13 12 12 13 11 14 8 4 4 2 3 3 4 5 7 9 16 15 20 12 12 11 9 8 9 9 10 13 13 10 9 10 10 9 5
15 16 15 14 17 22 18 20 17 13 13 14 10 9 10 4 4 4 3 3 2 3 4 4 15 21 23 13 11 11 11 9 11 11 13 11 9 9 9 9 7 5 5 8
19 16 15 17 19 18 21 18 16 13 13 8 7 8 5 4 3 4 8 7 7 8 5 8 15 17 15 9 9 9 11 13 12 12 10 11 7 5 6 5 5 5 4 3
15 16 16 17 18 15 16 16 15 12 5 5 4 1 3 3 3 5 7 7 8 9 7 10 13 10 7 9 9 9 10 9 8 8 9 9 8 8 6 3 3 3 5 6
12 11 13 16 12 10 12 12 4 1 2 3 3 3 4 4 5 6 7 7 6 11 7 9 9 8 9 10 9 9 9 9 7 7 7 8 6 4 3 4 5 6 7 8
10 9 10 11 11 9 8 2 3 3 3 5 5 5 6 7 7 8 8 6 10 11 11 10 9 7 9 9 9 10 9 9 5 3 4 3 3 4 5 6 6 6 6 3
Wind_Direction
292 296 299 290 288 284 278 281 284 298 300 304 303 351 18 347 306 318 288 255 213 211 188 185 192 184 188 188 183 186 174 176 162 161 156 151 161 152 158 163 157 162 159 157
268 272 273 281 280 278 273 275 275 279 281 282 297 353 321 324 324 313 297 270 234 208 196 191 193 188 186 187 177 172 164 168 149 144 154 150 150 153 156 164 157 166 169 163
275 288 290 274 256 257 269 274 274 268 280 9 316 321 328 314 340 315 316 293 264 218 212 193 193 186 186 185 169 158 161 147 145 148 153 149 155 155 164 164 161 171 173 172
277 275 268 273 299 283 295 293 304 299 313 311 337 295 286 84 349 319 311 291 273 253 208 193 198 178 177 182 168 160 160 151 155 158 155 153 158 163 162 167 167 176 175 180
267 259 271 273 269 286 273 270 287 289 289 329 329 312 127 27 356 333 316 299 263 254 225 202 195 167 169 172 169 163 161 159 160 160 155 162 163 160 162 160 172 173 177 182
256 273 279 308 6 29 328 278 295 6 18 0 324 293 49 348 358 349 340 329 316 241 208 181 197 163 168 169 170 170 162 157 165 160 156 160 165 163 158 162 167 172 174 185
244 255 268 283 313 29 265 354 5 357 354 345 343 338 328 350 350 3 342 354 343 301 210 172 190 161 175 174 179 161 149 161 160 162 164 169 157 158 161 166 153 174 175 180
245 254 261 16 317 250 348 337 6 338 341 328 324 328 353 344 348 11 359 350 348 310 27 113 149 141 175 183 142 151 160 162 163 166 165 158 152 155 169 166 149 165 176 181
284 286 336 316 285 295 322 317 312 357 312 321 316 330 340 337 338 37 3 3 349 343 48 164 176 181 173 140 149 161 166 168 170 164 154 151 154 158 169 182 157 179 181 191
269 263 283 302 306 312 311 280 336 315 315 320 310 329 310 336 341 16 357 345 14 328 245 213 207 113 134 158 165 166 160 170 156 161 152 159 162 166 174 178 179 197 187 197
270 276 278 271 276 290 287 268 291 288 303 308 303 314 312 298 328 355 337 321 292 266 266 210 163 165 161 167 170 171 158 159 164 160 160 168 179 176 188 189 197 186 194 199
274 285 290 294 305 309 304 296 270 294 295 299 307 297 305 304 311 306 269 243 257 248 235 202 182 178 179 178 170 155 157 168 170 158 173 179 180 164 60 95 126 95 78 42
265 267 268 272 276 282 282 282 288 289 280 291 286 287 289 284 271 299 295 232 225 210 217 194 187 189 174 157 159 163 171 176 171 173 181 183 186 179 185 133 93 117 118 78
283 285 277 277 277 281 285 281 271 259 255 269 277 269 263 268 281 268 274 283 259 187 193 179 194 192 164 165 169 174 187 190 188 188 188 188 189 189 189 188 192 202 192 224
274 273 277 282 283 276 277 286 280 258 254 274 280 272 266 270 274 279 289 283 273 267 206 179 182 180 167 173 183 195 197 176 188 195 193 186 178 191 196 187 187 194 190 187
289 290 289 286 283 279 274 273 281 286 265 267 267 266 267 275 277 277 277 280 269 255 238 224 175 179 183 186 188 194 200 180 191 195 168 185 193 193 197 192 186 193 193 182
279 279 291 292 287 274 268 277 275 264 268 257 254 264 268 274 280 280 275 266 258 249 249 235 210 176 182 194 200 188 175 166 179 194 188 185 186 192 193 201 192 206 201 188
291 325 314 310 305 299 281 289 300 261 252 247 257 285 282 270 272 278 279 279 264 237 232 246 242 174 177 183 174 183 172 174 192 191 171 140 122 179 202 198 205 210 208 143
312 325 322 312 303 304 294 282 290 303 276 190 273 274 277 277 276 278 277 268 247 259 252 131 123 150 167 173 175 198 173 167 138 105 94 71 55 354 263 229 220 218 221 159
349 334 337 343 336 317 297 282 334 273 299 325 291 288 288 281 274 271 300 279 257 238 333 198 185 179 167 163 162 134 130 134 128 111 120 139 202 221 200 225 230 205 231 164
243 310 330 328 317 305 294 292 292 299 302 296 288 287 292 281 291 193 210 239 233 317 292 278 209 178 162 144 139 139 139 139 123 133 169 211 212 215 218 208 212 238 226 223
294 302 311 316 300 291 286 288 279 281 291 292 286 301 294 285 162 206 194 324 32 345 308 249 217 177 149 136 131 127 127 141 136 190 187 201 210 214 211 208 201 209 222 195
290 288 281 281 279 278 275 282 279 280 282 277 304 290 273 247 169 165 161 106 132 63 19 39 114 121 122 122 125 134 144 165 198 194 195 206 210 191 215 217 214 202 163 194
266 258 259 267 264 256 260 265 271 274 273 319 292 268 246 167 130 93 98 124 120 79 82 102 98 98 107 118 130 148 183 184 195 209 185 187 207 217 222 172 200 194 235 191
255 260 257 253 241 237 242 255 261 258 321 284 278 201 75 131 105 117 126 130 133 109 105 118 122 136 156 163 161 166 186 199 189 176 170 196 204 196 215 205 188 213 222 218
253 249 243 224 223 216 233 237 230 27 238 199 135 135 113 101 106 114 130 137 118 119 116 150 176 198 146 152 160 166 166 176 199 218 208 197 190 140 194 219 190 213 233 249
260 238 235 179 199 222 240 300 98 209 220 138 126 123 125 118 116 123 137 160 169 138 150 147 173 216 157 155 172 177 181 163 204 187 194 241 199 242 249 251 250 258 253 290